Heron Island AWS may experience intermittent outages while the Heron Island Research Station upgrades infrastructure on the island

Latest Coastal Weather Observations for Heron Island

IDQ60701

Issued at 4:43 pm EST Wednesday 8 February 2023 (issued every 10 minutes, with the page automatically refreshed every 10 minutes)

About coastal observations | Map of coastal stations | Coastal observations for QLD | Marine services | Other Formats
Station Details ID: 039122 Name: HERON ISLAND RES STN Lat: -23.44 Lon: 151.91 Height: 3.3 m
Data from the previous 72 hours. | See also: Recent months at Heron Island
Date/Time
EST
Wind Sea
Height
m
Swell Vis
km
Cloud Weather Temp
°C
Press
MSL
hPa
Rain since
9am
mm
Dir  Spd
kts
Gust
kts
Height
m
Period
s
Dir
08/04:36pm SE 19 29 - - - - - - - - - -
08/04:30pm SE 20 29 - - - - - - - - - -
08/04:27pm SE 19 29 - - - - - - - - - -
08/04:00pm SE 19 27 - - - - - - - - - -
08/03:34pm SE 19 29 - - - - - - - - - -
08/03:30pm SE 19 28 - - - - - - - - - -
08/03:14pm SE 20 30 - - - - - - - - - -
08/03:00pm SE 19 27 - - - - - - - - - -
08/02:32pm SE 20 30 - - - - - - - - - -
08/02:30pm SE 21 30 - - - - - - - - - -
08/02:00pm SE 20 28 - - - - - - - - - -
08/01:30pm ESE 17 28 - - - - - - - - - -
08/01:11pm SE 19 29 - - - - - - - - - -
08/01:00pm SE 21 30 - - - - - - - - - -
08/12:30pm SE 19 28 - - - - - - - - - -
08/12:00pm SE 20 28 - - - - - - - - - -
08/11:30am ESE 19 27 - - - - - - - - - -
08/11:15am ESE 17 27 - - - - - - - - - -
08/11:00am SE 17 23 - - - - - - - - - -
08/10:30am ESE 17 23 - - - - - - - - - -
08/10:00am ESE 17 25 - - - - - - - - - -
08/09:33am ESE 16 26 - - - - - - - - - -
08/09:30am ESE 17 26 - - - - - - - - - -
08/09:10am ESE 17 27 - - - - - - - - - -
08/09:00am SE 17 24 - - - - - - - - - -
08/08:30am SE 17 23 - - - - - - - - - -
08/08:00am SE 15 21 - - - - - - - - - -
08/07:30am SE 15 24 - - - - - - - - - -
08/07:00am ESE 16 25 - - - - - - - - - -
08/06:57am ESE 15 25 - - - - - - - - - -
08/06:30am ESE 17 24 - - - - - - - - - -
08/06:00am SE 16 23 - - - - - - - - - -
08/05:53am SE 17 27 - - - - - - - - - -
08/05:30am SE 17 26 - - - - - - - - - -
08/05:05am SE 17 28 - - - - - - - - - -
08/05:00am SE 17 25 - - - - - - - - - -
08/04:30am ESE 15 20 - - - - - - - - - -
08/04:00am ESE 15 20 - - - - - - - - - -
08/03:30am ESE 15 21 - - - - - - - - - -
08/03:00am ESE 14 20 - - - - - - - - - -
08/02:30am ESE 17 25 - - - - - - - - - -
08/02:02am ESE 16 27 - - - - - - - - - -
08/02:00am ESE 16 22 - - - - - - - - - -
08/01:30am ESE 14 23 - - - - - - - - - -
08/01:00am SE 16 23 - - - - - - - - - -
08/12:30am SE 17 26 - - - - - - - - - -
08/12:00am ESE 17 28 - - - - - - - - - -
 
Date/Time
EST
Wind Sea
Height
m
Swell Vis
km
Cloud Weather Temp
°C
Press
MSL
hPa
Rain since
9am
mm
Dir  Spd
kts
Gust
kts
Height
m
Period
s
Dir
07/11:57pm ESE 17 28 - - - - - - - - - -
07/11:30pm SE 18 27 - - - - - - - - - -
07/11:13pm SE 19 29 - - - - - - - - - -
07/11:00pm SE 20 28 - - - - - - - - - -
07/10:34pm SE 18 28 - - - - - - - - - -
07/10:30pm SE 19 27 - - - - - - - - - -
07/10:00pm SE 23 29 - - - - - - - - - -
07/09:30pm SE 23 32 - - - - - - - - - -
07/09:08pm SE 22 32 - - - - - - - - - -
07/09:00pm SE 23 31 - - - - - - - - - -
07/08:30pm SE 25 32 - - - - - - - - - -
07/08:00pm SE 22 30 - - - - - - - - - -
07/07:30pm SE 23 30 - - - - - - - - - -
07/07:00pm SE 21 29 - - - - - - - - - -
07/06:30pm SE 22 30 - - - - - - - - - -
07/06:00pm SE 22 30 - - - - - - - - - -
07/05:49pm SE 18 28 - - - - - - - - - -
07/05:30pm SE 20 27 - - - - - - - - - -
07/05:09pm SE 21 31 - - - - - - - - - -
07/05:00pm SE 21 29 - - - - - - - - - -
07/04:32pm SE 20 30 - - - - - - - - - -
07/04:30pm SE 20 28 - - - - - - - - - -
07/04:15pm SE 20 30 - - - - - - - - - -
07/04:00pm SE 24 31 - - - - - - - - - -
07/03:30pm SE 23 30 - - - - - - - - - -
07/03:02pm SE 21 31 - - - - - - - - - -
07/03:00pm SE 22 31 - - - - - - - - - -
07/02:30pm SE 23 30 - - - - - - - - - -
07/02:00pm SE 22 30 - - - - - - - - - -
07/01:30pm SE 23 30 - - - - - - - - - -
07/01:00pm SE 24 31 - - - - - - - - - -
07/12:30pm SE 22 30 - - - - - - - - - -
07/12:00pm SE 23 30 - - - - - - - - - -
07/11:30am SE 21 30 - - - - - - - - - -
07/11:00am SSE 20 29 - - - - - - - - - -
07/10:30am SE 21 29 - - - - - - - - - -
07/10:00am SE 20 27 - - - - - - - - - -
07/09:30am SE 20 27 - - - - - - - - - -
07/09:00am SSE 20 27 - - - - - - - - - -
07/08:38am SSE 19 29 - - - - - - - - - -
07/08:30am SE 19 27 - - - - - - - - - -
07/08:00am SE 19 26 - - - - - - - - - -
07/07:30am SE 22 28 - - - - - - - - - -
07/07:00am SE 19 27 - - - - - - - - - -
07/06:40am SE 19 29 - - - - - - - - - -
07/06:30am SE 21 27 - - - - - - - - - -
07/06:00am SE 21 27 - - - - - - - - - -
07/05:30am SE 22 27 - - - - - - - - - -
07/05:00am SE 20 26 - - - - - - - - - -
07/04:30am SE 20 25 - - - - - - - - - -
07/04:00am SE 20 27 - - - - - - - - - -
07/03:30am SE 19 25 - - - - - - - - - -
07/03:00am SE 19 25 - - - - - - - - - -
07/02:30am SE 19 26 - - - - - - - - - -
07/02:00am SE 18 26 - - - - - - - - - -
07/01:30am SE 21 26 - - - - - - - - - -
07/01:00am SE 19 26 - - - - - - - - - -
07/12:30am SE 19 25 - - - - - - - - - -
07/12:00am SE 17 27 - - - - - - - - - -
 
Date/Time
EST
Wind Sea
Height
m
Swell Vis
km
Cloud Weather Temp
°C
Press
MSL
hPa
Rain since
9am
mm
Dir  Spd
kts
Gust
kts
Height
m
Period
s
Dir
06/11:30pm SE 17 24 - - - - - - - - - -
06/11:18pm ESE 15 26 - - - - - - - - - -
06/11:00pm ESE 17 24 - - - - - - - - - -
06/10:30pm SE 22 29 - - - - - - - - - -
06/10:05pm ESE 15 25 - - - - - - - - - -
06/10:00pm ESE 15 22 - - - - - - - - - -
06/09:48pm ESE 15 26 - - - - - - - - - -
06/09:30pm ESE 15 23 - - - - - - - - - -
06/09:00pm SE 20 30 - - - - - - - - - -
06/08:55pm SE 19 30 - - - - - - - - - -
06/08:30pm ESE 17 24 - - - - - - - - - -
06/08:00pm ESE 15 23 - - - - - - - - - -
06/07:30pm ESE 17 28 - - - - - - - - - -
06/07:21pm SE 20 30 - - - - - - - - - -
06/07:00pm SE 23 30 - - - - - - - - - -
06/06:30pm SE 20 30 - - - - - - - - - -
06/06:12pm SSE 19 29 - - - - - - - - - -
06/06:00pm SSE 19 28 - - - - - - - - - -
06/05:30pm SSE 19 29 - - - - - - - - - -
06/05:17pm SSE 17 29 - - - - - - - - - -
06/05:00pm SSE 18 26 - - - - - - - - - -
06/04:30pm SSE 18 27 - - - - - - - - - -
06/04:00pm SSE 18 27 - - - - - - - - - -
06/03:30pm SSE 16 26 - - - - - - - - - -
06/03:26pm SSE 15 26 - - - - - - - - - -
06/03:00pm SSE 16 24 - - - - - - - - - -
06/02:30pm SSE 16 21 - - - - - - - - - -
06/02:00pm SSE 14 19 - - - - - - - - - -
06/01:30pm SE 14 18 - - - - - - - - - -
06/01:00pm ESE 8 12 - - - - - - - - - -
06/12:30pm ESE 12 18 - - - - - - - - - -
06/12:00pm ESE 13 18 - - - - - - - - - -
06/11:30am SE 13 19 - - - - - - - - - -
06/11:00am NE 15 19 - - - - - - - - - -
06/10:30am SE 14 17 - - - - - - - - - -
06/10:00am SE 14 18 - - - - - - - - - -
06/09:30am SE 11 16 - - - - - - - - - -
06/09:00am SSE 11 18 - - - - - - - - - -
06/08:30am SE 13 16 - - - - - - - - - -
06/08:00am SSE 14 20 - - - - - - - - - -
06/07:30am SSE 12 18 - - - - - - - - - -
06/07:00am SSE 13 20 - - - - - - - - - -
06/06:30am SSE 13 17 - - - - - - - - - -
06/06:00am SE 13 17 - - - - - - - - - -
06/05:30am SE 14 17 - - - - - - - - - -
06/05:00am SSE 11 16 - - - - - - - - - -
06/04:30am SSE 14 18 - - - - - - - - - -
06/04:00am SE 14 19 - - - - - - - - - -
06/03:30am SE 14 18 - - - - - - - - - -
06/03:00am SE 13 17 - - - - - - - - - -
06/02:30am SSE 13 18 - - - - - - - - - -
06/02:00am SSE 12 17 - - - - - - - - - -
06/01:30am SSE 12 16 - - - - - - - - - -
06/01:00am SE 12 16 - - - - - - - - - -
06/12:30am SSE 12 18 - - - - - - - - - -
06/12:00am SE 13 17 - - - - - - - - - -
 
Date/Time
EST
Wind Sea
Height
m
Swell Vis
km
Cloud Weather Temp
°C
Press
MSL
hPa
Rain since
9am
mm
Dir  Spd
kts
Gust
kts
Height
m
Period
s
Dir
05/11:30pm SE 13 17 - - - - - - - - - -
05/11:00pm SE 14 18 - - - - - - - - - -
05/10:30pm ESE 12 17 - - - - - - - - - -
05/10:00pm SE 12 18 - - - - - - - - - -
05/09:30pm SE 14 20 - - - - - - - - - -
05/09:00pm SE 14 21 - - - - - - - - - -
05/08:30pm SE 14 18 - - - - - - - - - -
05/08:00pm SE 15 22 - - - - - - - - - -
05/07:30pm SE 10 15 - - - - - - - - - -
05/07:00pm ESE 12 16 - - - - - - - - - -
05/06:30pm SE 10 15 - - - - - - - - - -
05/06:00pm SE 11 16 - - - - - - - - - -
05/05:30pm ESE 11 18 - - - - - - - - - -
05/05:00pm ESE 13 17 - - - - - - - - - -

Other formats

Comma delimited format used in spreadsheet applications
http://www.bom.gov.au/fwo/IDQ60701/IDQ60701.94386.axf

JavaScript Object Notation format (JSON) in row-major order
http://www.bom.gov.au/fwo/IDQ60701/IDQ60701.94386.json

Data quality

Most of these data are generated automatically and are frequently updated. Quality checks on data are not normally performed. It is possible for incorrect values to appear. Refer to information at About Latest Weather Observations and please check the disclaimer before using these data.